Flag for Canada Weather past 2 weeks in Delta, British Columbia, Canada

Now
43 °F

Sunny.


Feels Like: 43 °F
Forecast: 36 / 47 °F
Wind: 2 mph from East

Location: Vancouver International Air-Port

Current Time: Jan 30, 2015 at 11:03:34 AM

Latest Report: Jan 30, 2015 at 10:00 AM


Visibility: 30 mi

Pressure: 30.34 "Hg

Humidity: 87%

Dew point: 39 °F

Location of DeltaLocation

Historic Weather in Delta — Graph

°F

Delta temperature yesterday

Maximum temperature yesterday: 46 °F (at 12:00 PM)
Minimum temperature yesterday: 36 °F (at 1:00 AM)
Average temperature yesterday: 40 °F

Past Weeks' High & Low Weather Summary

 TemperatureHumidityPressure
High57 °F (Jan 25, 1:00 PM)100% (Jan 17, 7:00 PM)30.48 "Hg (Jan 17, 7:00 PM)
Low30 °F (Jan 21, 3:00 AM)62% (Jan 16, 3:00 PM)29.46 "Hg (Jan 18, 1:00 AM)
Average45 °F91%30.17 "Hg
* Reported Jan 15 10:00 AM — Jan 30 10:00 AM, Delta, Weather by CustomWeather, © 2014

Note: Actual official high and low records may vary slightly from our data, if they occured in-between our weather recording intervals... More about our weather records

Advertising

Delta weather history for previous 24 hours

 ConditionsComfort  
Time TempWeatherWind HumidityBarometerVisibility
10:00 AM
Jan 30
43 °FSunny.2 mph87%30.34 "Hg30 mi
9:00 AM36 °FPassing clouds.6 mph100%30.33 "Hg30 mi
8:00 AM36 °FSunny.7 mph93%30.32 "Hg30 mi
7:00 AM34 °FFog.2 mph100%30.33 "Hg20 mi
6:00 AM36 °FClear.3 mph93%30.32 "Hg20 mi
5:00 AM34 °FPassing clouds.6 mph93%30.33 "Hg20 mi
4:00 AM34 °FPassing clouds.6 mph100%30.33 "Hg20 mi
3:00 AM36 °FPassing clouds.6 mph100%30.34 "Hg20 mi
2:00 AM36 °FPassing clouds.6 mph93%30.34 "Hg20 mi
1:00 AM39 °FPassing clouds.No wind100%30.34 "Hg20 mi
12:00 AM37 °FPassing clouds.No wind93%30.34 "Hg20 mi
11:00 PM
Jan 29
36 °FPassing clouds.5 mph100%30.34 "Hg20 mi
10:00 PM37 °FFog.No wind93%30.33 "Hg20 mi
9:00 PM41 °FPassing clouds.No wind93%30.33 "Hg20 mi
8:00 PM37 °FPassing clouds.5 mph93%30.34 "Hg30 mi
7:00 PM41 °FPassing clouds.3 mph93%30.33 "Hg30 mi
6:00 PM41 °FPassing clouds.5 mph100%30.33 "Hg30 mi
5:00 PM43 °FPassing clouds.7 mph93%30.33 "Hg30 mi
4:00 PM46 °FPassing clouds.8 mph87%30.34 "Hg30 mi
3:00 PM46 °FSunny.13 mph93%30.35 "Hg30 mi
2:00 PM46 °FPassing clouds.9 mph87%30.35 "Hg30 mi
1:00 PM46 °FPassing clouds.10 mph87%30.37 "Hg30 mi
12:00 PM46 °FPartly sunny.13 mph82%30.38 "Hg30 mi
11:00 AM45 °FOvercast.8 mph93%30.40 "Hg30 mi
Weather by CustomWeather, © 2014

See weather overviewHow to use our weather pages